Lamoni, IA

12:08 AM CDT on August 23, 2017 (GMT -0500)
Lamoni Municipal

Weather History for KLWD - January, 2015

Change the Weather History Date:

Sunday, January 4, 2015

  Actual Average Record
Temperature  
Mean Temperature 10 °F 24 °F  
Max Temperature 18 °F 33 °F 55 °F (2007)
Min Temperature 2 °F 16 °F -11 °F (1999)
Degree Days  
Heating Degree Days 55 41  
Month to date heating degree days 170 164  
Since 1 July heating degree days 2556 2593  
Cooling Degree Days 0 0  
Month to date cooling degree days 0 0  
Year to date cooling degree days 0 0  
Moisture  
Dew Point 2 °F    
Average Humidity 71    
Maximum Humidity 84    
Minimum Humidity 57    
Precipitation  
Precipitation 0.04 in 0.02 in 0.39 in (1949)
Month to date precipitation 0.05 0.09  
Sea Level Pressure  
Sea Level Pressure 30.32 in    
Wind  
Wind Speed 16 mph (NW)    
Max Wind Speed 29 mph    
Max Gust Speed 37 mph    
Visibility 7 miles    
Events Snow    
T = Trace of Precipitation, MM = Missing Value Source: NWS Daily Summary

Daily Weather History Graph

Daily Weather History Graph

Search for Another Location

Airport or City:

Trip Planner

Search our weather history database for the weather conditions in past years. The results will help you decide how hot, cold, wet, or windy it might be!

Date:

Astronomy

Jan. 04, 2015 Rise Set
Actual Time 7:39 AM CST 5:01 PM CST
Civil Twilight 7:08 AM CST 5:32 PM CST
Nautical Twilight 6:34 AM CST 6:06 PM CST
Astronomical Twilight 6:01 AM CST 6:39 PM CST
Moon 5:02 PM CST (1/4) 6:52 AM CST (1/4)
Length of Visible Light 10h 23m
Length of Day
9h 22m
Full, 100% of the Moon is Illuminated
Jan 4
Full
Jan 4
Full
Jan 13
Last Quarter
Jan 20
New
Jan 26
First Quarter

Hourly Weather History & Observations

Time (CST) Temp. Windchill Dew Point Humidity Pressure Visibility Wind Dir Wind Speed Gust Speed Precip Events Conditions
12:14 AM 17.1 °F 3.0 °F 14.0 °F 88% 29.98 in 1.0 mi North 13.8 mph 28.8 mph 0.01 in Snow Light Snow
12:30 AM 16.0 °F 0.1 °F 12.9 °F 88% 29.99 in 1.5 mi NW 17.3 mph - 0.02 in Snow Light Snow
12:39 AM 16.0 °F -1.3 °F 12.0 °F 84% 30.00 in 1.8 mi NNW 20.7 mph 28.8 mph 0.02 in Snow Light Snow
12:53 AM 15.1 °F -1.6 °F 10.9 °F 84% 30.05 in 1.2 mi NNW 18.4 mph 26.5 mph 0.02 in Snow Light Snow
1:06 AM 15.1 °F -1.1 °F 10.9 °F 84% 30.01 in 1.0 mi NNW 17.3 mph - 0.00 in Snow Light Snow
1:49 AM 12.2 °F -5.3 °F 8.6 °F 85% 30.04 in 2.0 mi NNW 18.4 mph 28.8 mph 0.02 in Snow Light Snow
1:53 AM 12.9 °F -5.3 °F 8.1 °F 81% 30.09 in 2.5 mi NNW 20.7 mph 31.1 mph 0.02 in Snow Light Snow
2:01 AM 12.9 °F -6.1 °F 7.0 °F 77% 30.04 in 3.0 mi NNW 23.0 mph 31.1 mph 0.00 in Snow Light Snow
2:23 AM 12.0 °F -5.6 °F 7.0 °F 80% 30.05 in 2.0 mi NNW 18.4 mph 25.3 mph 0.00 in Snow Light Snow
2:35 AM 10.9 °F -7.5 °F 6.1 °F 81% 30.04 in 5.0 mi NNW 19.6 mph 32.2 mph 0.00 in Snow Light Snow
2:53 AM 10.9 °F -7.9 °F 5.0 °F 77% 30.09 in 5.0 mi NNW 20.7 mph 31.1 mph 0.00 in Snow Light Snow
3:24 AM 10.0 °F -9.5 °F 3.9 °F 76% 30.05 in 10.0 mi NNW 21.9 mph 31.1 mph 0.00 in   Overcast
3:53 AM 9.0 °F -10.5 °F 3.0 °F 77% 30.13 in 8.0 mi NNW 20.7 mph 28.8 mph 0.00 in   Mostly Cloudy
4:34 AM 8.1 °F -10.7 °F 1.9 °F 76% 30.13 in 9.0 mi NW 18.4 mph - N/A   Overcast
4:53 AM 7.0 °F -13.1 °F 1.0 °F 77% 30.19 in 10.0 mi NNW 20.7 mph 32.2 mph N/A   Overcast
5:53 AM 7.0 °F -15.3 °F -0.0 °F 73% 30.22 in 10.0 mi NNW 26.5 mph 33.4 mph N/A   Overcast
6:53 AM 6.1 °F -13.8 °F -0.9 °F 73% 30.28 in 9.0 mi NW 19.6 mph 27.6 mph 0.00 in Snow Light Snow
7:21 AM 6.1 °F -11.6 °F -0.0 °F 76% 30.25 in 8.0 mi NW 15.0 mph - 0.00 in   Overcast
7:34 AM 6.8 °F -12.4 °F 1.4 °F 79% 30.26 in 2.5 mi NW 18.4 mph 26.5 mph N/A   Haze
7:45 AM 6.1 °F -12.8 °F 1.0 °F 80% 30.27 in 5.0 mi NW 17.3 mph - 0.00 in   Haze
7:53 AM 6.1 °F -15.7 °F -0.0 °F 76% 30.33 in 10.0 mi NNW 24.2 mph 29.9 mph 0.00 in   Overcast
8:03 AM 6.1 °F -14.8 °F -0.9 °F 73% 30.28 in 10.0 mi NW 21.9 mph 29.9 mph N/A   Mostly Cloudy
8:53 AM 6.1 °F -13.8 °F -4.0 °F 63% 30.38 in 10.0 mi NW 19.6 mph - N/A   Clear
9:53 AM 7.0 °F -13.6 °F -2.9 °F 64% 30.43 in 10.0 mi NW 21.9 mph 29.9 mph N/A   Clear
10:53 AM 8.1 °F -11.2 °F -4.0 °F 58% 30.47 in 10.0 mi NW 19.6 mph 28.8 mph N/A   Clear
11:53 AM 10.0 °F -8.6 °F -2.9 °F 56% 30.49 in 10.0 mi NW 19.6 mph - N/A   Clear
12:53 PM 10.9 °F -7.9 °F -2.9 °F 54% 30.50 in 10.0 mi NW 20.7 mph 28.8 mph N/A   Clear
1:53 PM 10.9 °F -8.3 °F -2.0 °F 56% 30.53 in 10.0 mi NW 21.9 mph - N/A   Clear
2:53 PM 10.9 °F -4.7 °F -2.9 °F 54% 30.57 in 10.0 mi NW 13.8 mph - N/A   Clear
3:53 PM 10.9 °F -7.0 °F -2.9 °F 54% 30.61 in 10.0 mi WNW 18.4 mph - N/A   Clear
4:53 PM 8.1 °F -5.3 °F -2.9 °F 61% 30.62 in 10.0 mi WNW 9.2 mph - N/A   Clear
5:53 PM 5.0 °F -8.1 °F -2.9 °F 70% 30.65 in 10.0 mi West 8.1 mph - N/A   Clear
6:53 PM 3.0 °F -10.5 °F -4.0 °F 73% 30.67 in 10.0 mi West 8.1 mph - N/A   Clear
7:53 PM 1.9 °F -11.8 °F -4.0 °F 76% 30.69 in 10.0 mi West 8.1 mph - N/A   Clear
8:53 PM 3.0 °F -9.3 °F -5.1 °F 69% 30.70 in 10.0 mi NW 6.9 mph - N/A   Clear
9:53 PM 5.0 °F -10.0 °F -5.1 °F 63% 30.71 in 10.0 mi WNW 10.4 mph - N/A   Clear
10:53 PM 5.0 °F -6.9 °F -4.0 °F 66% 30.71 in 10.0 mi NW 6.9 mph - N/A   Clear
11:53 PM 5.0 °F -9.1 °F -2.9 °F 70% 30.74 in 10.0 mi NW 9.2 mph - N/A   Overcast